Tracking 20621 objects as of 31-Mar-2020
HD Live streaming from Space Station
objects crossing your sky now

COSMOS 1553

Track COSMOS 1553 now!
10-day predictions
COSMOS 1553 is classified as:


NORAD ID: 14973
Int'l Code: 1984-046A
Perigee: 962.9 km
Apogee: 1,012.2 km
Inclination: 82.9 °
Period: 104.7 minutes
Semi major axis: 7358 km
RCS: 2.1904 m2 (large)
Launch date: May 17, 1984
Source: Commonwealth of Independent States (former USSR) (CIS)
Launch site: PLESETSK MISSILE AND SPACE COMPLEX (PKMTR)
aabbcc
Your satellite tracking list
Your tracking list is empty




NASA's NSSDC Master Catalog

Two Line Element Set (TLE):
1 14973U 84046A   20090.85814196 +.00000030 +00000-0 +14729-4 0  9999
2 14973 082.9348 136.1164 0033503 126.1858 046.2243 13.75345511799750
Source of the keplerian elements: AFSPC